DW8463 Weather Reports


time (UTC)temp
C
wind
direction
speed
KPH
gust
KPH
rain 1hr
cm
rain 24hr
cm
rain mn
cm
humidity
%
barometer
mb
20260906093303 19 88 1.6 4.8 0.00 0.00 0.00 100 1015.6
20260906092803 19 88 1.6 3.2 0.00 0.00 0.00 100 1015.5
20260906092306 19 56 1.6 4.8 0.00 0.00 0.00 100 1015.5
20260906091303 19 69 3.2 8.0 0.00 0.00 0.00 100 1015.5
20260906090803 19 66 1.6 4.8 0.00 0.00 0.00 100 1015.4
20260906090303 19 106 1.6 9.7 0.00 0.00 0.00 100 1015.3
20260906085803 20 72 1.6 4.8 0.00 0.00 0.00 100 1015.3
20260906085306 20 99 3.2 4.8 0.00 0.00 0.00 100 1015.2
20260906084304 20 85 1.6 4.8 0.00 0.00 0.00 100 1015.2
20260906083803 20 98 3.2 4.8 0.00 0.00 0.00 100 1015.1
20260906082803 20 78 3.2 9.7 0.00 0.00 0.00 100 1015.2
20260906082306 20 71 3.2 8.0 0.00 0.00 0.00 100 1015.2
20260906080803 20 128 1.6 4.8 0.00 0.00 0.00 100 1015.6
20260906080303 20 128 0.0 3.2 0.00 0.00 0.00 100 1015.6
20260906075803 20 128 1.6 4.8 0.00 0.00 0.00 100 1015.7
20260906075306 20 128 0.0 0.0 0.00 0.00 0.00 100 1015.7
20260906074303 20 128 0.0 0.0 0.00 0.00 0.00 100 1015.7
20260906073803 20 128 0.0 1.6 0.00 0.00 0.00 100 1015.6
20260906073303 20 128 1.6 3.2 0.00 0.00 0.00 100 1015.7
20260906072803 20 128 0.0 3.2 0.00 0.00 0.00 100 1015.6
20260906072305 20 128 0.0 0.0 0.00 0.00 0.00 100 1015.6
20260906070803 20 128 0.0 0.0 0.00 0.00 0.00 100 1015.7
20260906065803 20 128 0.0 0.0 0.00 0.00 0.00 100 1015.8
20260906065305 20 128 0.0 0.0 0.00 0.00 0.00 100 1015.7
20260906064803 20 128 0.0 0.0 0.00 0.00 0.00 100 1015.7
20260906064303 20 128 0.0 0.0 0.00 0.00 0.00 100 1015.7
20260906063803 20 128 0.0 0.0 0.00 0.00 0.00 100 1015.8
20260906063304 20 132 0.0 0.0 0.00 0.00 0.00 100 1015.8
20260906062306 20 132 0.0 0.0 0.00 0.00 0.00 100 1015.8
20260906061803 20 132 0.0 0.0 0.00 0.00 0.00 100 1015.8
20260906061303 20 132 0.0 0.0 0.00 0.00 0.00 100 1015.9
20260906060803 20 132 0.0 0.0 0.00 0.00 0.00 100 1016.0
20260906060303 20 132 0.0 0.0 0.00 0.00 0.00 100 1016.0
20260906054803 20 132 0.0 0.0 0.00 0.00 0.00 100 1015.9
20260906054303 20 132 0.0 0.0 0.00 0.00 0.00 100 1015.9
20260906053304 20 132 0.0 0.0 0.00 0.00 0.00 100 1016.1
20260906052804 20 133 0.0 0.0 0.00 0.00 0.00 100 1016.1
20260906052305 20 133 0.0 0.0 0.00 0.00 0.00 100 1016.1
20260906051803 20 133 0.0 0.0 0.00 0.00 0.00 100 1016.1
20260906051303 20 133 0.0 1.6 0.00 0.00 0.00 100 1016.0
20260906050814 20 132 0.0 4.8 0.00 0.00 0.00 100 1016.0
20260906050303 21 133 0.0 3.2 0.00 0.00 0.00 100 1016.0
20260906045804 21 133 0.0 4.8 0.00 0.00 0.00 100 1016.0
20260906045305 21 133 1.6 4.8 0.00 0.00 0.00 100 1016.1
20260906044803 21 133 1.6 4.8 0.00 0.00 0.00 100 1016.0
20260906044304 21 133 1.6 4.8 0.00 0.00 0.00 100 1016.0
20260906043803 21 133 1.6 4.8 0.00 0.00 0.00 100 1016.0
20260906043303 21 133 1.6 4.8 0.00 0.00 0.00 100 1016.1
20260906042803 21 133 1.6 3.2 0.00 0.00 0.00 100 1016.1
20260906042306 21 133 1.6 3.2 0.00 0.00 0.00 100 1016.1
20260906041803 21 133 0.0 3.2 0.00 0.00 0.00 100 1016.1
20260906041303 21 133 0.0 3.2 0.00 0.00 0.00 100 1016.0
20260906040803 21 133 1.6 3.2 0.00 0.00 0.00 100 1015.9
20260906040303 21 133 0.0 3.2 0.00 0.00 0.00 100 1016.0
20260906035803 21 133 0.0 0.0 0.00 0.00 0.00 100 1015.9
20260906035306 21 133 0.0 1.6 0.00 0.00 0.00 100 1015.8
20260906034804 21 133 0.0 3.2 0.00 0.00 0.00 100 1015.8
20260906033304 21 133 0.0 0.0 0.00 0.00 0.00 100 1016.0
20260906032804 21 133 0.0 0.0 0.00 0.00 0.00 100 1016.0
20260906032306 21 133 0.0 0.0 0.00 0.00 0.00 100 1016.0
20260906031303 21 133 0.0 0.0 0.00 0.00 0.00 100 1016.0
20260906030802 21 133 0.0 0.0 0.00 0.00 0.00 100 1016.0
20260906030303 21 133 0.0 0.0 0.00 0.00 0.00 100 1016.0
20260906025803 21 133 0.0 0.0 0.00 0.00 0.00 100 1015.8
20260906025306 21 133 0.0 0.0 0.00 0.00 0.00 100 1015.7
20260906024303 21 133 0.0 0.0 0.00 0.00 0.00 100 1015.6
20260906023803 21 133 0.0 1.6 0.00 0.00 0.00 100 1015.5
20260906023303 21 133 0.0 0.0 0.00 0.00 0.00 100 1015.5
20260906022803 21 133 0.0 0.0 0.00 0.00 0.00 100 1015.4
20260906022306 21 133 0.0 0.0 0.00 0.00 0.00 100 1015.1
20260906021803 21 133 0.0 0.0 0.00 0.00 0.00 100 1015.1
20260906021303 21 133 0.0 0.0 0.00 0.00 0.00 100 1015.1
20260906020303 21 133 0.0 0.0 0.00 0.00 0.00 100 1014.7
20260906015803 21 133 0.0 0.0 0.00 0.00 0.00 100 1014.7
20260906015306 21 133 0.0 0.0 0.00 0.00 0.00 100 1014.5
20260906014803 21 133 0.0 0.0 0.00 0.00 0.00 100 1014.3
20260906014304 21 133 0.0 0.0 0.00 0.00 0.00 100 1014.3
20260906013803 21 133 0.0 0.0 0.00 0.00 0.00 100 1014.3
20260906013303 21 133 0.0 0.0 0.00 0.00 0.00 100 1014.2
20260906012803 21 133 0.0 0.0 0.00 0.00 0.00 100 1014.3
20260906012306 21 133 0.0 0.0 0.00 0.00 0.00 100 1014.3
20260906011803 22 133 0.0 0.0 0.00 0.00 0.00 100 1014.3
20260906011303 22 133 0.0 0.0 0.00 0.00 0.00 100 1014.2
20260906010803 22 133 0.0 1.6 0.00 0.00 0.00 100 1014.1
20260906005803 22 133 0.0 0.0 0.00 0.00 0.00 100 1013.9
20260906004803 22 133 0.0 0.0 0.00 0.00 0.00 100 1013.8
20260906004303 22 133 0.0 0.0 0.00 0.00 0.00 100 1013.8
20260906003803 22 133 0.0 0.0 0.00 0.00 0.00 100 1013.7
20260906003303 22 133 0.0 1.6 0.00 0.00 0.00 100 1013.7
20260906002305 23 133 0.0 0.0 0.00 0.00 0.00 100 1013.8
20260906001803 23 133 0.0 3.2 0.00 0.00 0.00 100 1013.7
20260906001303 23 125 1.6 4.8 0.00 0.00 0.00 100 1013.7
20260906000803 24 93 1.6 4.8 0.00 0.00 0.00 100 1013.8
20260905235803 24 118 3.2 8.0 0.00 0.00 0.00 90 1013.9
20260905234803 24 100 3.2 8.0 0.00 0.00 0.00 90 1013.9
20260905233803 25 123 4.8 14.5 0.00 0.00 0.00 90 1013.8
20260905232803 25 135 6.4 12.9 0.00 0.00 0.00 90 1013.7
20260905232306 25 121 3.2 12.9 0.00 0.00 0.00 90 1013.6
20260905231803 25 118 3.2 11.3 0.00 0.00 0.00 90 1013.4
20260905230803 25 76 6.4 16.1 0.00 0.00 0.00 90 1013.4
20260905230303 25 92 4.8 14.5 0.00 0.00 0.00 90 1013.3
20260905225804 25 75 4.8 16.1 0.00 0.00 0.00 91 1013.2
20260905224303 25 64 3.2 9.7 0.00 0.00 0.00 91 1013.1
20260905223803 25 110 4.8 14.5 0.00 0.00 0.00 91 1013.1
20260905223303 25 67 9.7 19.3 0.00 0.00 0.00 91 1013.0
20260905222803 25 80 14.5 19.3 0.00 0.00 0.00 91 1013.0
20260905222306 25 71 4.8 19.3 0.00 0.00 0.00 91 1013.0
20260905221303 25 78 4.8 19.3 0.00 0.00 0.00 91 1012.9
20260905220803 25 71 9.7 24.1 0.00 0.00 0.00 91 1012.8
20260905220303 25 76 9.7 20.9 0.00 0.00 0.00 91 1012.7
20260905215306 25 95 11.3 19.3 0.00 0.00 0.00 92 1012.9
20260905214304 26 74 9.7 20.9 0.00 0.00 0.00 92 1013.0
20260905213804 26 41 6.4 19.3 0.00 0.00 0.00 92 1013.1
20260905213303 26 71 11.3 20.9 0.00 0.00 0.00 92 1013.0
20260905212803 26 66 8.0 12.9 0.00 0.00 0.00 92 1013.0
20260905212306 26 69 8.0 20.9 0.00 0.00 0.00 92 1013.0
20260905211803 26 78 6.4 20.9 0.00 0.00 0.00 92 1013.2
20260905211303 26 67 11.3 19.3 0.00 0.00 0.00 92 1013.2
20260905210803 26 70 9.7 19.3 0.00 0.00 0.00 92 1013.2
20260905210303 26 80 9.7 19.3 0.00 0.00 0.00 92 1013.2
20260905205803 26 88 11.3 19.3 0.00 0.00 0.00 93 1013.2
20260905205306 26 52 9.7 19.3 0.00 0.00 0.00 93 1013.3
20260905204803 26 59 9.7 16.1 0.00 0.00 0.00 93 1013.4
20260905204303 26 87 8.0 16.1 0.00 0.00 0.00 93 1013.6
20260905203803 26 32 6.4 16.1 0.00 0.00 0.00 93 1013.5
20260905202803 26 86 6.4 16.1 0.00 0.00 0.00 93 1013.8
20260905202306 26 79 8.0 16.1 0.00 0.00 0.00 93 1013.9
20260905200803 26 77 4.8 11.3 0.00 0.00 0.00 93 1014.1
20260905195803 26 122 0.0 9.7 0.00 0.00 0.00 93 1014.3
20260905195306 26 181 1.6 4.8 0.00 0.00 0.00 93 1014.4
20260905194803 26 181 1.6 4.8 0.00 0.00 0.00 93 1014.4
20260905194304 26 161 0.0 4.8 0.00 0.00 0.00 93 1014.3
20260905193803 26 125 1.6 9.7 0.00 0.00 0.00 93 1014.5
20260905193303 26 223 1.6 4.8 0.00 0.00 0.00 93 1014.4
20260905192803 26 223 1.6 9.7 0.00 0.00 0.00 93 1014.5
20260905192306 26 132 1.6 9.7 0.00 0.00 0.00 93 1014.5
20260905191303 27 191 3.2 11.3 0.00 0.00 0.00 93 1014.4
20260905185803 27 151 6.4 12.9 0.00 0.00 0.00 94 1014.4
20260905185305 26 238 3.2 12.9 0.00 0.00 0.00 94 1014.5
20260905184803 27 119 3.2 14.5 0.00 0.00 0.00 94 1014.5
20260905183803 26 163 4.8 11.3 0.00 0.00 0.00 94 1014.6
20260905183303 26 41 4.8 12.9 0.00 0.00 0.00 94 1014.6
20260905182803 26 77 8.0 14.5 0.00 0.00 0.00 94 1014.6
20260905182305 25 61 3.2 8.0 0.00 0.00 0.00 94 1014.8
20260905181803 25 73 3.2 11.3 0.00 0.00 0.00 94 1014.8
20260905181303 25 35 3.2 11.3 0.00 0.00 0.00 94 1014.9
20260905180803 25 110 3.2 12.9 0.00 0.00 0.00 94 1015.1
20260905174803 24 199 0.0 4.8 0.00 0.00 0.00 100 1015.4
20260905174303 24 170 3.2 4.8 0.00 0.00 0.00 100 1015.5
20260905173803 24 138 0.0 4.8 0.00 0.00 0.00 100 1015.5
20260905173303 24 63 3.2 8.0 0.00 0.00 0.00 100 1015.4
20260905172803 24 77 3.2 4.8 0.00 0.00 0.00 100 1015.4
20260905172305 24 75 8.0 12.9 0.00 0.00 0.00 100 1015.4
20260905171803 24 87 4.8 11.3 0.00 0.00 0.00 100 1015.5
20260905171303 24 119 3.2 4.8 0.00 0.00 0.00 100 1015.6
20260905170803 24 167 1.6 4.8 0.00 0.00 0.00 100 1015.7
20260905170303 24 138 0.0 4.8 0.00 0.00 0.00 100 1015.7
20260905165803 23 135 3.2 9.7 0.00 0.00 0.00 100 1015.7
20260905165306 24 190 1.6 4.8 0.00 0.00 0.00 100 1015.6
20260905163803 23 166 1.6 4.8 0.00 0.00 0.00 100 1015.5
20260905163303 23 117 6.4 12.9 0.00 0.00 0.00 100 1015.4
20260905162804 23 91 4.8 14.5 0.00 0.00 0.00 100 1015.3
20260905162305 23 68 4.8 14.5 0.00 0.00 0.00 100 1015.2
20260905161803 23 69 3.2 11.3 0.00 0.00 0.00 100 1015.2
20260905161303 23 58 3.2 4.8 0.00 0.00 0.00 100 1015.1
20260905160803 23 106 4.8 9.7 0.00 0.00 0.00 100 1015.1
20260905160303 23 74 3.2 12.9 0.00 0.00 0.00 100 1015.0
20260905155804 23 137 3.2 12.9 0.00 0.00 0.00 100 1015.1
20260905155306 23 95 4.8 9.7 0.00 0.00 0.00 100 1015.0
20260905154803 23 79 8.0 12.9 0.00 0.00 0.00 100 1015.0
20260905154303 23 92 8.0 19.3 0.00 0.00 0.00 100 1015.0
20260905153803 23 83 8.0 19.3 0.00 0.00 0.00 100 1015.0
20260905153303 23 105 1.6 9.7 0.00 0.00 0.00 100 1014.9
20260905152803 23 72 4.8 9.7 0.00 0.00 0.00 100 1015.1
20260905152306 23 88 4.8 14.5 0.00 0.00 0.00 100 1015.0
20260905151804 23 70 6.4 16.1 0.00 0.00 0.00 100 1015.0
20260905151304 23 93 4.8 12.9 0.00 0.00 0.00 100 1015.0
20260905150803 23 81 4.8 12.9 0.00 0.00 0.00 100 1014.9
20260905150304 23 64 4.8 12.9 0.00 0.00 0.00 100 1014.9
20260905145804 23 51 3.2 4.8 0.00 0.00 0.00 100 1014.8
20260905145306 23 57 4.8 11.3 0.00 0.00 0.00 100 1014.9
20260905144803 22 87 4.8 11.3 0.00 0.00 0.00 100 1015.0
20260905144303 22 72 4.8 11.3 0.00 0.00 0.00 100 1014.8
20260905143803 22 100 1.6 11.3 0.00 0.00 0.00 100 1014.9
20260905143303 22 71 8.0 14.5 0.00 0.00 0.00 100 1014.8
20260905142803 22 93 3.2 12.9 0.00 0.00 0.00 100 1014.7
20260905142306 22 75 8.0 12.9 0.00 0.00 0.00 100 1014.6
20260905141803 22 77 4.8 11.3 0.00 0.00 0.00 100 1014.7
20260905141304 22 40 4.8 9.7 0.00 0.00 0.00 100 1014.6
20260905140303 22 78 4.8 11.3 0.00 0.00 0.00 100 1014.5
20260905135803 22 80 4.8 9.7 0.00 0.00 0.00 100 1014.4
20260905135306 22 71 8.0 14.5 0.00 0.00 0.00 100 1014.5
20260905134803 22 73 6.4 16.1 0.00 0.00 0.00 100 1014.4
20260905134303 22 97 8.0 14.5 0.00 0.00 0.00 100 1014.5
20260905133803 22 79 3.2 11.3 0.00 0.00 0.00 100 1014.3
20260905133303 21 71 4.8 12.9 0.00 0.00 0.00 100 1014.3
20260905132803 21 98 4.8 11.3 0.00 0.00 0.00 100 1014.4
20260905132305 21 45 4.8 14.5 0.00 0.00 0.00 100 1014.3
20260905131804 21 65 1.6 9.7 0.00 0.00 0.00 100 1014.1
20260905131303 21 66 3.2 9.7 0.00 0.00 0.00 100 1014.0
20260905130803 21 89 1.6 8.0 0.00 0.00 0.00 100 1013.8
20260905125803 21 65 8.0 16.1 0.00 0.00 0.00 100 1013.4
20260905125306 21 89 4.8 14.5 0.00 0.00 0.00 100 1013.5
20260905124803 21 68 4.8 12.9 0.00 0.00 0.00 100 1013.3
20260905124303 21 74 4.8 11.3 0.00 0.00 0.00 100 1013.2
20260905123803 21 89 3.2 9.7 0.00 0.00 0.00 100 1013.1
20260905123303 21 36 3.2 12.9 0.00 0.00 0.00 100 1013.1
20260905122803 21 58 8.0 16.1 0.00 0.00 0.00 100 1013.1
20260905122306 21 78 3.2 11.3 0.00 0.00 0.00 100 1013.2
20260905121803 21 83 4.8 9.7 0.00 0.00 0.00 100 1013.2
20260905121303 21 76 4.8 12.9 0.00 0.00 0.00 100 1013.3
20260905120804 21 33 3.2 8.0 0.00 0.00 0.00 100 1013.2
20260905120304 21 84 1.6 9.7 0.00 0.00 0.00 100 1013.2
20260905115803 21 92 4.8 11.3 0.00 0.00 0.00 100 1013.0
20260905115306 21 80 4.8 11.3 0.00 0.00 0.00 100 1013.0
20260905114803 21 61 3.2 12.9 0.00 0.00 0.00 100 1012.9
20260905114303 21 47 4.8 11.3 0.00 0.00 0.00 100 1013.0
20260905113803 21 43 3.2 9.7 0.00 0.00 0.00 100 1013.0
20260905112803 21 73 4.8 8.0 0.00 0.00 0.00 100 1012.9
20260905112305 21 86 3.2 4.8 0.00 0.00 0.00 100 1012.9
20260905111303 21 58 1.6 4.8 0.00 0.00 0.00 100 1013.0
20260905105804 21 71 3.2 8.0 0.00 0.00 0.00 100 1013.0
20260905105306 21 84 4.8 9.7 0.00 0.00 0.00 100 1012.9
20260905104803 21 89 1.6 8.0 0.00 0.00 0.00 100 1012.9
20260905104303 21 90 3.2 8.0 0.00 0.00 0.00 100 1012.8
20260905103804 21 63 1.6 4.8 0.00 0.00 0.00 100 1012.7
20260905102306 21 57 3.2 8.0 0.00 0.00 0.00 100 1012.7
20260905101304 21 337 0.0 1.6 0.00 0.00 0.00 100 1012.9
20260905100803 21 338 1.6 4.8 0.00 0.00 0.00 100 1012.5
20260905100304 21 84 4.8 11.3 0.00 0.00 0.00 100 1012.1
20260905095803 21 65 1.6 4.8 0.00 0.00 0.00 100 1012.0
20260905095306 21 71 3.2 9.7 0.00 0.00 0.00 100 1011.9
20260905094803 20 82 0.0 3.2 0.00 0.00 0.00 100 1012.1
20260905094303 20 45 1.6 8.0 0.00 0.00 0.00 100 1012.1
20260905093802 20 79 3.2 11.3 0.00 0.00 0.00 100 1012.0